EN

Hourly Weather Lincoln

Today, 19 January, Tuesday

Time Temperature Precipitation Wind Pressure Humidity
00:00 +7°C° 0.4 mm 6 mps 749 mmHg 95%
01:00 +7°C° 0.6 mm 5 mps 748 mmHg 95%
02:00 +7°C° 0.6 mm 5 mps 747 mmHg 95%
03:00 +7°C° 0.6 mm 4 mps 745 mmHg 95%
04:00 +7°C° 0.6 mm 4 mps 745 mmHg 95%
05:00 +7°C° 0.6 mm 4 mps 745 mmHg 95%
06:00 +7°C° 0.6 mm 4 mps 744 mmHg 95%
07:00 +8°C° 1.1 mm 6 mps 744 mmHg 92%
08:00 +8°C° 1.1 mm 7 mps 744 mmHg 89%
09:00 +9°C° 1.1 mm 8 mps 744 mmHg 86%
10:00 +9°C° 0.1 mm 8 mps 744 mmHg 85%
11:00 +9°C° 0.1 mm 8 mps 744 mmHg 84%
12:00 +9°C° 0.1 mm 8 mps 744 mmHg 83%
13:00 +9°C° 0.1 mm 8 mps 743 mmHg 83%
14:00 +9°C° 0.1 mm 8 mps 742 mmHg 84%
15:00 +7°C° 0.1 mm 8 mps 741 mmHg 84%
16:00 +8°C° 0.3 mm 9 mps 740 mmHg 85%
17:00 +8°C° 0.3 mm 9 mps 739 mmHg 86%
18:00 +8°C° 0.3 mm 9 mps 739 mmHg 86%
19:00 +8°C° 0.3 mm 9 mps 738 mmHg 87%
20:00 +8°C° 0.3 mm 9 mps 738 mmHg 87%
21:00 +8°C° 0.3 mm 9 mps 737 mmHg 88%
22:00 +9°C° 0.4 mm 8 mps 737 mmHg 88%
23:00 +9°C° 0.4 mm 8 mps 736 mmHg 88%

Tomorrow, 20 January, Wednesday

Time Temperature Precipitation Wind Pressure Humidity
00:00 +9°C° 0.4 mm 8 mps 736 mmHg 88%
01:00 +9°C° 0.5 mm 8 mps 735 mmHg 88%
02:00 +9°C° 0.5 mm 8 mps 735 mmHg 88%
03:00 +9°C° 0.5 mm 7 mps 734 mmHg 88%
04:00 +9°C° 0.1 mm 7 mps 734 mmHg 88%
05:00 +9°C° 0.1 mm 7 mps 734 mmHg 89%
06:00 +9°C° 0.1 mm 7 mps 734 mmHg 89%
07:00 +9°C° 0.5 mm 7 mps 734 mmHg 89%
08:00 +9°C° 0.5 mm 7 mps 734 mmHg 90%
09:00 +9°C° 0.5 mm 7 mps 733 mmHg 91%
10:00 +9°C° 1.3 mm 7 mps 733 mmHg 91%
11:00 +9°C° 1.3 mm 8 mps 733 mmHg 90%
12:00 +8°C° 1.3 mm 9 mps 732 mmHg 90%
13:00 +8°C° 0.7 mm 9 mps 731 mmHg 88%
14:00 +8°C° 0.7 mm 9 mps 730 mmHg 87%
15:00 +8°C° 0.7 mm 9 mps 730 mmHg 86%
16:00 +8°C° 0.2 mm 10 mps 729 mmHg 85%
17:00 +8°C° 0.2 mm 10 mps 729 mmHg 84%
18:00 +8°C° 0.2 mm 10 mps 728 mmHg 83%
19:00 +8°C° 0.1 mm 10 mps 727 mmHg 83%
20:00 +7°C° 0.1 mm 9 mps 726 mmHg 84%
21:00 +7°C° 0.1 mm 9 mps 725 mmHg 85%
22:00 +7°C° 0.3 mm 9 mps 724 mmHg 86%
23:00 +7°C° 0.3 mm 9 mps 723 mmHg 87%

Day after tomorrow, 21 January, Thursday

Time Temperature Precipitation Wind Pressure Humidity
00:00 +7°C° 0.3 mm 9 mps 721 mmHg 87%
01:00 +5°C° 0.3 mm 10 mps 721 mmHg 87%
02:00 +2°C° 0.3 mm 11 mps 721 mmHg 87%
03:00 0°C° 0.3 mm 12 mps 721 mmHg 86%
04:00 0°C° 0.2 mm 12 mps 722 mmHg 82%
05:00 0°C° 0.2 mm 13 mps 723 mmHg 77%
06:00 0°C° 0.2 mm 13 mps 724 mmHg 72%
07:00 0°C° 0 mm 13 mps 725 mmHg 72%
08:00 -1°C° 0 mm 12 mps 725 mmHg 72%
09:00 -1°C° 0 mm 12 mps 726 mmHg 72%
10:00 0°C° 0 mm 12 mps 727 mmHg 70%
11:00 +2°C° 0 mm 11 mps 728 mmHg 69%
12:00 +2°C° 0 mm 11 mps 729 mmHg 67%
13:00 +2°C° 0 mm 10 mps 730 mmHg 68%
14:00 +2°C° 0 mm 9 mps 730 mmHg 70%
15:00 +3°C° 0 mm 7 mps 730 mmHg 71%
16:00 +2°C° 0 mm 7 mps 731 mmHg 75%
17:00 +1°C° 0 mm 6 mps 731 mmHg 78%
18:00 0°C° 0 mm 5 mps 731 mmHg 82%
19:00 0°C° 0 mm 5 mps 731 mmHg 83%
20:00 0°C° 0 mm 5 mps 731 mmHg 84%
21:00 0°C° 0 mm 5 mps 731 mmHg 85%
22:00 0°C° 0 mm 5 mps 732 mmHg 84%
23:00 0°C° 0 mm 5 mps 732 mmHg 84%

22 January, Friday

Time Temperature Precipitation Wind Pressure Humidity
00:00 0°C° 0 mm 5 mps 732 mmHg 83%
01:00 0°C° 0 mm 5 mps 732 mmHg 82%
02:00 0°C° 0 mm 5 mps 733 mmHg 81%
03:00 0°C° 0 mm 5 mps 733 mmHg 80%
04:00 0°C° 0 mm 5 mps 734 mmHg 80%
05:00 0°C° 0 mm 5 mps 734 mmHg 80%
06:00 0°C° 0 mm 5 mps 735 mmHg 80%
07:00 0°C° 0 mm 5 mps 735 mmHg 80%
08:00 0°C° 0 mm 5 mps 736 mmHg 79%
09:00 0°C° 0 mm 5 mps 737 mmHg 78%
10:00 +1°C° 0 mm 5 mps 737 mmHg 74%
11:00 +1°C° 0 mm 5 mps 738 mmHg 70%
12:00 +2°C° 0 mm 5 mps 738 mmHg 66%
13:00 +3°C° 0 mm 4 mps 738 mmHg 67%
14:00 +3°C° 0 mm 4 mps 739 mmHg 69%
15:00 +3°C° 0 mm 3 mps 739 mmHg 70%
16:00 +2°C° 0 mm 3 mps 739 mmHg 74%
17:00 +2°C° 0 mm 2 mps 739 mmHg 79%
18:00 +1°C° 0 mm 2 mps 740 mmHg 83%
19:00 +1°C° 0 mm 2 mps 740 mmHg 84%
20:00 -1°C° 0 mm 2 mps 740 mmHg 85%
21:00 +1°C° 0 mm 1 mps 740 mmHg 85%
22:00 +1°C° 0 mm 1 mps 739 mmHg 85%
23:00 +1°C° 0 mm 1 mps 739 mmHg 85%

23 January, Saturday

Time Temperature Precipitation Wind Pressure Humidity
00:00 0°C° 0 mm 0 mps 739 mmHg 84%
01:00 +1°C° 0 mm 1 mps 739 mmHg 84%
02:00 +1°C° 0 mm 1 mps 739 mmHg 84%
03:00 0°C° 0 mm 1 mps 739 mmHg 84%
04:00 0°C° 0 mm 1 mps 739 mmHg 84%
05:00 -2°C° 0 mm 2 mps 739 mmHg 84%
06:00 -2°C° 0 mm 2 mps 739 mmHg 84%
07:00 -2°C° 0 mm 2 mps 740 mmHg 82%
08:00 -2°C° 0 mm 2 mps 740 mmHg 79%
09:00 -2°C° 0 mm 2 mps 740 mmHg 76%
10:00 +1°C° 0 mm 1 mps 740 mmHg 70%
11:00 +2°C° 0 mm 1 mps 741 mmHg 64%
12:00 +3°C° 0 mm 1 mps 741 mmHg 58%
13:00 +3°C° 0 mm 1 mps 741 mmHg 58%
14:00 +3°C° 0 mm 1 mps 741 mmHg 58%
15:00 +3°C° 0 mm 1 mps 741 mmHg 58%
16:00 +2°C° 0 mm 1 mps 741 mmHg 60%
17:00 +1°C° 0 mm 1 mps 741 mmHg 62%
18:00 0°C° 0 mm 1 mps 741 mmHg 64%
19:00 0°C° 0 mm 1 mps 741 mmHg 64%
20:00 0°C° 0 mm 1 mps 741 mmHg 63%
21:00 -2°C° 0 mm 2 mps 741 mmHg 63%
22:00 -2°C° 0 mm 2 mps 741 mmHg 64%
23:00 -2°C° 0 mm 3 mps 740 mmHg 66%

24 January, Sunday

Time Temperature Precipitation Wind Pressure Humidity
00:00 -2°C° 0 mm 3 mps 740 mmHg 68%
01:00 -3°C° 0 mm 4 mps 740 mmHg 71%
02:00 -2°C° 0 mm 4 mps 740 mmHg 74%
03:00 -2°C° 0 mm 4 mps 739 mmHg 77%
04:00 -2°C° 0 mm 3 mps 739 mmHg 82%
05:00 -2°C° 0 mm 3 mps 739 mmHg 86%
06:00 -2°C° 0 mm 3 mps 739 mmHg 90%
07:00 -2°C° 0 mm 2 mps 739 mmHg 90%
08:00 -1°C° 0 mm 2 mps 739 mmHg 90%
09:00 -1°C° 0 mm 2 mps 739 mmHg 89%
10:00 +1°C° 0 mm 2 mps 740 mmHg 84%
11:00 +2°C° 0 mm 2 mps 740 mmHg 79%
12:00 +2°C° 0 mm 3 mps 740 mmHg 74%
13:00 +2°C° 0 mm 3 mps 741 mmHg 73%
14:00 +2°C° 0 mm 3 mps 741 mmHg 72%
15:00 +2°C° 0 mm 3 mps 741 mmHg 72%
16:00 +1°C° 0 mm 3 mps 742 mmHg 76%
17:00 0°C° 0 mm 3 mps 742 mmHg 81%
18:00 -1°C° 0 mm 3 mps 743 mmHg 85%
19:00 -1°C° 0 mm 3 mps 743 mmHg 87%
20:00 -1°C° 0 mm 3 mps 744 mmHg 89%
21:00 -1°C° 0 mm 3 mps 744 mmHg 90%
22:00 -2°C° 0 mm 4 mps 745 mmHg 89%
23:00 -1°C° 0 mm 4 mps 745 mmHg 87%
Show more